[[{"header":{"parameterUnit":"m.s-1","parameterCategory":2,"la1":30.2991,"la2":30.254,"lo1":-89.0895,"lo2":-89.0444,"dy":0.0017,"dx":0.0017,"nx":28,"ny":28,"refTime":"2023-09-19T03:00:00:Z","depth":"0","parameterNumber":2,"parameterNumberName":"U-component_of_CURRENTS"},"data":[0,0,0,0,0,0,0,0,0,0,0,0,0,0,0,0,0,0,0,0,0,0,0,0,0,0,0,0,0,0,0,0,0,0,0,0,0,0,0,0,0,0,0,0,0,0,0,0,0,0,0,0,0,0,0,0,0,0,-0.2744,-0.2745,0,-0.2766,-0.2766,-0.2766,-0.2732,-0.2731,-0.273,-0.273,-0.2697,-0.2697,-0.2697,0,0,0,0,0,0,0,0,0,0,0,0,0,-0.2653,-0.2655,-0.2744,-0.2745,-0.2746,-0.2766,-0.2766,-0.2766,-0.2732,-0.2731,-0.273,-0.2729,-0.2697,-0.2697,-0.2697,0,0,0,0,0,0,0,0,0,0,0,0,0,-0.2682,-0.2656,-0.2744,-0.2734,-0.2734,-0.2766,-0.2766,-0.2766,-0.2732,-0.2731,-0.273,-0.2729,-0.2697,-0.2697,-0.2697,-0.2721,0,0,-0.2697,-0.2697,0,0,0,0,0,0,0,0,-0.2681,-0.2685,-0.2735,-0.2735,-0.2734,-0.2748,-0.2723,-0.275,-0.2733,-0.2729,-0.273,-0.2728,-0.2713,-0.2711,-0.2713,-0.272,-0.2718,-0.2697,-0.2697,-0.2697,-0.2696,0,0,0,0,0,0,0,-0.2679,-0.2684,-0.2749,-0.2736,-0.2735,-0.2722,-0.2724,-0.2727,-0.2723,-0.2729,-0.2728,-0.2737,-0.2712,-0.2714,-0.2712,-0.2718,-0.2697,-0.2697,-0.2696,-0.2696,-0.2743,-0.2745,0,0,0,0,0,0,-0.2687,-0.2683,-0.2748,-0.275,-0.2708,-0.2725,-0.2727,-0.2742,-0.2725,-0.2722,-0.2738,-0.2735,-0.2715,-0.2713,-0.2711,-0.2748,-0.2697,-0.2696,-0.2696,-0.2742,-0.2744,-0.2745,0,0,0,0,0,0,-0.2685,-0.2693,-0.2748,-0.2719,-0.2726,-0.2728,-0.2745,-0.2743,-0.2746,-0.2732,-0.2728,-0.2742,-0.2714,-0.2711,-0.2721,-0.2746,-0.2696,-0.2696,-0.2741,-0.2743,-0.2744,-0.2815,0,0,0,0,0,0,-0.2682,-0.2692,-0.2701,-0.272,-0.2728,-0.2779,-0.2746,-0.2745,-0.2755,-0.2751,-0.2735,-0.273,-0.2712,-0.2721,-0.2721,-0.2745,-0.2696,-0.2739,-0.2741,-0.2744,-0.2811,-0.282,-0.2827,0,0,0,0,0,-0.2679,-0.2702,-0.2701,-0.2709,-0.2742,-0.2781,-0.2784,-0.2777,-0.2757,-0.2771,-0.2755,-0.2731,-0.2736,-0.2722,-0.2721,-0.2746,-0.2738,-0.2741,-0.2744,-0.2808,-0.2818,-0.2826,0,0,0,0,0,0,-0.2665,-0.2702,-0.2701,-0.2733,-0.276,-0.2777,-0.2787,-0.2785,-0.2785,-0.2774,-0.275,-0.2746,-0.2765,-0.2748,-0.2733,-0.2767,-0.2733,-0.2736,-0.2782,-0.2791,-0.2799,-0.2807,-0.2696,0,0,0,0,0,-0.2669,-0.2692,-0.2728,-0.275,-0.2767,-0.2777,-0.2789,-0.2792,-0.2797,-0.2795,-0.2784,-0.2774,-0.2779,-0.2778,-0.2778,-0.2798,-0.2783,-0.2813,-0.282,-0.2827,-0.2834,-0.2835,-0.2843,-0.2755,-0.2755,-0.2755,0,0,-0.2666,-0.2691,-0.2701,-0.2748,-0.2762,-0.2802,-0.278,-0.2808,-0.2836,-0.2793,-0.2815,-0.2802,-0.2791,-0.2813,-0.282,-0.28,-0.2846,-0.2831,-0.2836,-0.284,-0.2839,-0.2847,-0.2855,-0.2757,-0.2757,-0.2756,0,0,-0.2681,-0.2699,-0.2726,-0.2761,-0.28,-0.2816,-0.2829,-0.2855,-0.286,-0.2887,-0.2863,-0.2868,-0.287,-0.2872,-0.2871,-0.2923,-0.2889,-0.292,-0.2963,-0.2964,-0.2971,-0.2977,-0.2977,-0.2982,-0.2921,-0.2921,-0.2921,0,-0.2672,-0.2718,-0.274,-0.2785,-0.2813,-0.2827,-0.2869,-0.2891,-0.2914,-0.2924,-0.2901,-0.2913,-0.2901,-0.2934,-0.2949,-0.2941,-0.2931,-0.2929,-0.2974,-0.298,-0.2984,-0.2982,-0.2987,-0.2925,-0.2924,-0.2924,-0.2923,0,-0.2715,-0.2754,-0.2776,-0.2835,-0.2872,-0.2911,-0.2954,-0.2981,-0.2981,-0.2994,-0.3021,-0.3007,-0.3007,-0.3012,-0.2994,-0.3031,-0.301,-0.2986,-0.295,-0.2998,-0.2992,-0.2996,-0.293,-0.2929,-0.2927,-0.2927,0,0,-0.2674,-0.2783,-0.2787,-0.2825,-0.2902,-0.2934,-0.2996,-0.3049,-0.308,-0.3091,-0.3124,-0.3131,-0.3108,-0.3107,-0.3088,-0.3093,-0.312,-0.3056,-0.3054,-0.3054,-0.3122,-0.3073,-0.3073,-0.31,-0.3101,-0.3101,-0.3106,0,-0.2692,-0.2776,-0.2832,-0.2906,-0.2951,-0.3004,-0.3062,-0.3112,-0.3137,-0.3175,-0.3171,-0.3187,-0.3151,-0.3145,-0.3149,-0.313,-0.3133,-0.3121,-0.3076,-0.3075,-0.3025,-0.3076,-0.2978,-0.2971,-0.311,-0.311,-0.3111,0,-0.2705,-0.2763,-0.284,-0.2945,-0.2969,-0.3016,-0.3097,-0.3153,-0.322,-0.3237,-0.3255,-0.325,-0.3268,-0.3221,-0.3214,-0.3206,-0.317,-0.3151,-0.315,-0.3082,-0.3034,-0.2944,-0.2972,-0.2946,-0.3116,-0.3116,-0.3115,0,-0.2646,-0.2761,-0.2818,-0.2856,-0.298,-0.3016,-0.3071,-0.3153,-0.3198,-0.3264,-0.329,-0.3312,-0.331,-0.3287,-0.3242,-0.3227,-0.323,-0.3199,-0.3126,-0.3122,-0.3018,-0.3003,-0.3012,-0.3192,-0.3192,-0.3192,-0.3192,0,-0.2639,-0.2679,-0.2792,-0.2824,-0.2886,-0.2982,-0.3045,-0.3108,-0.3196,-0.3247,-0.3297,-0.3323,-0.3323,-0.3322,-0.3275,-0.3216,-0.3248,-0.3147,-0.3125,-0.3041,-0.3028,-0.2982,-0.2993,-0.3192,-0.3192,-0.3192,-0.3192,0,-0.2563,-0.2645,-0.2709,-0.2828,-0.286,-0.2894,-0.301,-0.3061,-0.3154,-0.3222,-0.3241,-0.3327,-0.333,-0.3327,-0.3299,-0.3246,-0.315,-0.3167,-0.3071,-0.3038,-0.2936,-0.2955,-0.2926,-0.2841,-0.3095,-0.3093,-0.3092,0,-0.2532,-0.2559,-0.2672,-0.2702,-0.275,-0.282,-0.2876,-0.3004,-0.3062,-0.3207,-0.323,-0.3286,-0.33,-0.3271,-0.3203,-0.3139,-0.3101,-0.3008,-0.2961,-0.2932,-0.2937,-0.293,-0.2859,-0.2855,-0.2852,-0.285,-0.2848,0,-0.2451,-0.2489,-0.2537,-0.2599,-0.2653,-0.272,-0.2805,-0.2855,-0.3012,-0.3074,-0.3159,-0.319,-0.3213,-0.3126,-0.3067,-0.3001,-0.2941,-0.2958,-0.2949,-0.2777,-0.2749,-0.2654,-0.2859,-0.2828,-0.283,-0.2831,-0.2832,-0.2833,-0.236,-0.2369,-0.2425,-0.2469,-0.2532,-0.2582,-0.258,-0.27,-0.2762,-0.2839,-0.2986,-0.3006,-0.303,-0.2938,-0.289,-0.2775,-0.2789,-0.2681,-0.2715,-0.2718,-0.2611,-0.2778,-0.2708,-0.2709,-0.271,-0.2711,-0.2712,0,-0.2236,-0.2259,-0.2294,-0.2334,-0.2334,-0.2417,-0.2498,-0.2477,-0.2493,-0.2638,-0.2685,-0.2767,-0.2705,-0.2737,-0.2675,-0.2568,-0.2486,-0.2496,-0.2464,-0.2406,-0.2564,-0.2527,-0.2387,-0.2387,-0.2387,-0.2387,-0.2388,-0.2388,-0.217,-0.2145,-0.2165,-0.2105,-0.2131,-0.2072,-0.2077,-0.2078,-0.2142,-0.2201,-0.2299,-0.2445,-0.2506,-0.2715,-0.2609,-0.2487,-0.2401,-0.2327,-0.2328,-0.2457,-0.2477,-0.2496,-0.2462,-0.2312,-0.2312,-0.2076,-0.2074,-0.2073]},{"header":{"parameterUnit":"m.s-1","parameterCategory":2,"la1":30.2991,"la2":30.254,"lo1":-89.0895,"lo2":-89.0444,"dy":0.0017,"dx":0.0017,"nx":28,"ny":28,"refTime":"2023-09-19T03:00:00:Z","depth":"0","parameterNumber":3,"parameterNumberName":"V-component_of_CURRENTS"},"data":[0,0,0,0,0,0,0,0,0,0,0,0,0,0,0,0,0,0,0,0,0,0,0,0,0,0,0,0,0,0,0,0,0,0,0,0,0,0,0,0,0,0,0,0,0,0,0,0,0,0,0,0,0,0,0,0,0,0,-0.0139,-0.0138,0,-0.004,-0.0039,-0.0038,0.0027,0.0028,0.0028,0.0029,0.0156,0.0159,0.0162,0,0,0,0,0,0,0,0,0,0,0,0,0,-0.0224,-0.0224,-0.0139,-0.0138,-0.0137,-0.0041,-0.0039,-0.0038,0.0027,0.0028,0.0028,0.0029,0.0155,0.0159,0.0162,0,0,0,0,0,0,0,0,0,0,0,0,0,-0.0163,-0.0223,-0.0139,-0.0092,-0.0087,-0.0041,-0.0039,-0.0037,0.0027,0.0028,0.0029,0.0029,0.0154,0.0159,0.0163,0.0176,0,0,0.0176,0.0178,0,0,0,0,0,0,0,0,-0.0167,-0.016,-0.0101,-0.0095,-0.009,-0.0018,-0.0022,0.0036,0.0027,-0.0017,0.0029,0.003,0.0101,0.0109,0.0126,0.0182,0.0188,0.0177,0.018,0.0181,0.0183,0,0,0,0,0,0,0,-0.0171,-0.0164,-0.01,-0.0099,-0.0093,-0.006,-0.0051,-0.0011,0.0037,-0.0013,-0.0008,0.0004,0.0104,0.0121,0.0129,0.0189,0.0177,0.0181,0.0183,0.0185,0.0287,0.0287,0,0,0,0,0,0,-0.0186,-0.0168,-0.0104,-0.0097,-0.0127,-0.0059,-0.0049,-0.0042,0.0036,0.0049,0.0003,0.0006,0.0113,0.0124,0.0134,0.0166,0.0181,0.0186,0.0188,0.0287,0.0287,0.0287,0,0,0,0,0,0,-0.0188,-0.0181,-0.0108,-0.013,-0.0118,-0.0059,-0.0051,-0.004,-0.002,0.0048,0.0061,0.0012,0.0114,0.0128,0.0173,0.0171,0.0188,0.0192,0.0287,0.0287,0.0287,0.0222,0,0,0,0,0,0,-0.0191,-0.0183,-0.0187,-0.0131,-0.0117,-0.0088,-0.0051,-0.0039,-0.0014,-0.0009,0.006,0.0072,0.0116,0.0166,0.0177,0.0177,0.0195,0.0287,0.0287,0.0287,0.0225,0.022,0.0217,0,0,0,0,0,-0.0195,-0.0205,-0.0188,-0.018,-0.0124,-0.0088,-0.0079,-0.0034,-0.0015,-0.0012,0.004,0.007,0.0174,0.0169,0.0183,0.0184,0.0287,0.0287,0.0287,0.0226,0.0221,0.0217,0,0,0,0,0,0,-0.0245,-0.0198,-0.0178,-0.0174,-0.0137,-0.0077,-0.0072,-0.004,0.0003,0.0008,0.0073,0.0089,0.0126,0.0164,0.0157,0.0214,0.0235,0.0237,0.0184,0.018,0.0176,0.0161,0.0199,0,0,0,0,0,-0.0259,-0.0255,-0.0202,-0.02,-0.0185,-0.013,-0.0111,-0.0081,-0.0034,-0.0014,0.0037,0.009,0.0136,0.0164,0.0207,0.0239,0.0283,0.0248,0.0244,0.0241,0.0238,0.0304,0.0305,0.0287,0.0287,0.0287,0,0,-0.0278,-0.0252,-0.025,-0.0211,-0.018,-0.0166,-0.0117,-0.0096,-0.0079,-0.0007,0.0025,0.0076,0.0141,0.0177,0.0197,0.021,0.0269,0.0241,0.0237,0.0236,0.0304,0.0306,0.0307,0.0287,0.0287,0.0287,0,0,-0.0322,-0.0293,-0.0306,-0.0279,-0.0238,-0.02,-0.0197,-0.014,-0.0109,-0.0072,-0.0015,0.0036,0.0101,0.0154,0.0188,0.0188,0.0243,0.0198,0.0172,0.0235,0.0237,0.0239,0.0293,0.0301,0.02,0.02,0.02,0,-0.035,-0.0355,-0.0305,-0.0307,-0.0291,-0.022,-0.0227,-0.0184,-0.0119,-0.0093,-0.0073,0.004,0.0092,0.0153,0.0153,0.018,0.022,0.0182,0.0229,0.0233,0.0236,0.0291,0.0301,0.0197,0.0197,0.0197,0.0197,0,-0.0399,-0.0401,-0.0406,-0.0384,-0.0358,-0.0353,-0.0286,-0.0256,-0.0211,-0.016,-0.0095,-0.0014,0.0054,0.0079,0.0117,0.0168,0.019,0.0213,0.0238,0.0234,0.0292,0.0303,0.0192,0.0193,0.0194,0.0195,0,0,-0.0467,-0.0449,-0.0449,-0.0455,-0.0399,-0.0386,-0.0352,-0.03,-0.0277,-0.0201,-0.0161,-0.0071,-0.0018,0.0024,0.0087,0.0146,0.0205,0.0182,0.0187,0.0229,0.034,0.0391,0.0408,0.0234,0.0236,0.0237,0.0369,0,-0.0523,-0.0562,-0.0521,-0.054,-0.0553,-0.0474,-0.045,-0.0388,-0.032,-0.0262,-0.0156,-0.0099,-0.004,-0.0008,0.0062,0.0171,0.0231,0.0166,0.0343,0.0349,0.0389,0.0422,0.0472,0.0597,0.038,0.0382,0.0383,0,-0.0583,-0.0602,-0.0642,-0.0628,-0.0623,-0.0614,-0.0557,-0.0524,-0.0414,-0.0361,-0.0267,-0.0179,-0.0069,-0.0029,0.0163,0.0118,0.0217,0.0302,0.0309,0.0387,0.042,0.0568,0.0626,0.081,0.0401,0.0399,0.0398,0,-0.0665,-0.068,-0.072,-0.0715,-0.0685,-0.0679,-0.0652,-0.0561,-0.0531,-0.0419,-0.0381,-0.0231,-0.0152,-0.0006,0.0184,0.017,0.0394,0.0399,0.054,0.0544,0.0638,0.0648,0.0891,0.0522,0.0522,0.0522,0.0521,0,-0.074,-0.0767,-0.0768,-0.0788,-0.0828,-0.0767,-0.077,-0.0716,-0.063,-0.0592,-0.0443,-0.0372,-0.0143,0.0021,0.0175,0.0406,0.0395,0.0546,0.0589,0.0617,0.0623,0.0828,0.0895,0.0527,0.0526,0.0525,0.0524,0,-0.0819,-0.0817,-0.0867,-0.0867,-0.0871,-0.0898,-0.0865,-0.086,-0.0764,-0.0706,-0.0674,-0.0466,-0.0239,-0.0001,0.026,0.04,0.0726,0.0682,0.0698,0.074,0.1023,0.1082,0.1349,0.1443,0.0852,0.0854,0.0856,0,-0.0865,-0.0902,-0.0944,-0.0983,-0.0987,-0.1011,-0.1025,-0.0945,-0.0923,-0.0758,-0.0736,-0.0499,-0.031,0.0106,0.0409,0.0715,0.0841,0.0915,0.0899,0.1065,0.1163,0.1196,0.1257,0.0999,0.1002,0.1004,0.1006,0,-0.095,-0.0962,-0.1006,-0.1097,-0.1135,-0.1168,-0.1169,-0.1171,-0.1055,-0.097,-0.0806,-0.0638,-0.0198,0.021,0.0621,0.079,0.1059,0.0971,0.1156,0.1315,0.1357,0.1458,0.0874,0.1027,0.1025,0.1023,0.1022,0.1021,-0.1006,-0.1066,-0.1128,-0.121,-0.1263,-0.1307,-0.1328,-0.1289,-0.1236,-0.1072,-0.088,-0.0581,0.0045,0.0649,0.0862,0.1322,0.1247,0.1435,0.1497,0.1518,0.1608,0.1062,0.125,0.1249,0.1249,0.1248,0.1248,0,-0.1079,-0.1143,-0.1234,-0.1323,-0.1399,-0.1391,-0.141,-0.1388,-0.1324,-0.1099,-0.0886,-0.0196,0.0405,0.0953,0.1632,0.1854,0.1882,0.1945,0.2019,0.2057,0.1603,0.1609,0.1869,0.1869,0.1869,0.1869,0.1868,0.1868,-0.1117,-0.1222,-0.1274,-0.1418,-0.1477,-0.1538,-0.1547,-0.1475,-0.1321,-0.0947,-0.0557,-0.0214,0.0599,0.1746,0.2353,0.2374,0.2553,0.2515,0.2605,0.2308,0.2265,0.2224,0.2249,0.2639,0.264,0.3043,0.3047,0.305]}],[{"header":{"parameterUnit":"m.s-1","parameterCategory":2,"la1":30.2991,"la2":30.254,"lo1":-89.0895,"lo2":-89.0444,"dy":0.0017,"dx":0.0017,"nx":28,"ny":28,"refTime":"2023-09-19T03:00:00:Z","depth":"2","parameterNumber":2,"parameterNumberName":"U-component_of_CURRENTS"},"data":[0,0,0,0,0,0,0,0,0,0,0,0,0,0,0,0,0,0,0,0,0,0,0,0,0,0,0,0,0,0,0,0,0,0,0,0,0,0,0,0,0,0,0,0,0,0,0,0,0,0,0,0,0,0,0,0,0,0,-0.2554,-0.2555,0,-0.2577,-0.2577,-0.2577,-0.255,-0.2549,-0.2548,-0.2548,-0.2523,-0.2523,-0.2523,0,0,0,0,0,0,0,0,0,0,0,0,0,-0.2468,-0.2469,-0.2554,-0.2555,-0.2556,-0.2577,-0.2577,-0.2577,-0.255,-0.2549,-0.2548,-0.2547,-0.2523,-0.2523,-0.2523,0,0,0,0,0,0,0,0,0,0,0,0,0,-0.2496,-0.247,-0.2554,-0.2547,-0.2547,-0.2577,-0.2577,-0.2577,-0.255,-0.2549,-0.2548,-0.2547,-0.2523,-0.2523,-0.2523,-0.2542,0,0,-0.2522,-0.2522,0,0,0,0,0,0,0,0,-0.2494,-0.2499,-0.2548,-0.2548,-0.2548,-0.2563,-0.2537,-0.2564,-0.255,-0.2545,-0.2548,-0.2547,-0.2535,-0.2534,-0.2536,-0.2541,-0.254,-0.2522,-0.2522,-0.2522,-0.2522,0,0,0,0,0,0,0,-0.2492,-0.2497,-0.256,-0.2549,-0.2549,-0.2537,-0.2539,-0.2542,-0.2541,-0.2545,-0.2544,-0.2553,-0.2534,-0.2536,-0.2535,-0.254,-0.2522,-0.2522,-0.2522,-0.2522,-0.2571,-0.2572,0,0,0,0,0,0,-0.25,-0.2496,-0.2559,-0.2561,-0.2522,-0.2539,-0.2542,-0.2556,-0.2542,-0.2541,-0.2554,-0.2552,-0.2536,-0.2535,-0.2534,-0.2574,-0.2522,-0.2522,-0.2522,-0.257,-0.2571,-0.2573,0,0,0,0,0,0,-0.2498,-0.2505,-0.2558,-0.2531,-0.2537,-0.2542,-0.2558,-0.2557,-0.2563,-0.255,-0.2547,-0.2562,-0.2535,-0.2534,-0.2546,-0.2572,-0.2522,-0.2522,-0.2568,-0.257,-0.2572,-0.2643,0,0,0,0,0,0,-0.2495,-0.2505,-0.2515,-0.2532,-0.2539,-0.2589,-0.2559,-0.2558,-0.2572,-0.2569,-0.2556,-0.2552,-0.2535,-0.2546,-0.2546,-0.2571,-0.2522,-0.2566,-0.2569,-0.2571,-0.2639,-0.2648,-0.2655,0,0,0,0,0,-0.2492,-0.2515,-0.2515,-0.2523,-0.2554,-0.2591,-0.2594,-0.259,-0.2573,-0.2588,-0.2575,-0.2553,-0.2561,-0.2548,-0.2547,-0.2572,-0.2565,-0.2568,-0.2571,-0.2636,-0.2646,-0.2654,0,0,0,0,0,0,-0.2481,-0.2515,-0.2515,-0.2546,-0.2573,-0.2588,-0.26,-0.2599,-0.2602,-0.2594,-0.2571,-0.2568,-0.259,-0.2573,-0.2558,-0.2594,-0.2559,-0.2562,-0.2609,-0.2618,-0.2626,-0.2634,-0.2522,0,0,0,0,0,-0.2486,-0.2508,-0.2541,-0.2564,-0.258,-0.2591,-0.2603,-0.2607,-0.2614,-0.2614,-0.2605,-0.2597,-0.2603,-0.2603,-0.2604,-0.2625,-0.261,-0.2641,-0.2648,-0.2655,-0.2661,-0.2663,-0.2671,-0.2582,-0.2582,-0.2582,0,0,-0.2484,-0.2508,-0.2518,-0.2563,-0.2576,-0.2614,-0.2594,-0.2624,-0.2652,-0.2611,-0.2636,-0.2626,-0.2615,-0.2639,-0.2646,-0.2627,-0.2674,-0.2659,-0.2664,-0.2667,-0.2667,-0.2675,-0.2683,-0.2584,-0.2584,-0.2584,0,0,-0.25,-0.2519,-0.2545,-0.2578,-0.2616,-0.2631,-0.2645,-0.2671,-0.2678,-0.2706,-0.2685,-0.2693,-0.2697,-0.2698,-0.2697,-0.2749,-0.2717,-0.2748,-0.2791,-0.2793,-0.28,-0.2806,-0.2806,-0.2812,-0.2749,-0.2749,-0.2749,0,-0.2494,-0.2537,-0.2559,-0.2601,-0.2629,-0.2643,-0.2684,-0.2706,-0.2731,-0.2742,-0.2722,-0.2738,-0.2727,-0.2759,-0.2775,-0.2768,-0.2759,-0.2757,-0.2803,-0.2808,-0.2813,-0.2812,-0.2817,-0.2753,-0.2752,-0.2752,-0.2752,0,-0.2536,-0.2574,-0.2595,-0.2652,-0.2687,-0.2725,-0.2766,-0.2794,-0.2799,-0.2812,-0.2842,-0.2829,-0.2832,-0.2838,-0.2821,-0.2858,-0.2839,-0.2814,-0.2779,-0.2827,-0.2822,-0.2826,-0.2758,-0.2757,-0.2756,-0.2755,0,0,-0.2501,-0.2603,-0.2607,-0.2643,-0.2717,-0.2747,-0.2808,-0.286,-0.2892,-0.2907,-0.2941,-0.2951,-0.2932,-0.2931,-0.2914,-0.292,-0.2949,-0.2885,-0.2883,-0.2884,-0.2953,-0.2903,-0.2902,-0.293,-0.2931,-0.2931,-0.2938,0,-0.2519,-0.2599,-0.2651,-0.2722,-0.2765,-0.2816,-0.2872,-0.2922,-0.2949,-0.2988,-0.2987,-0.3006,-0.2972,-0.297,-0.2975,-0.2958,-0.2962,-0.2949,-0.2907,-0.2906,-0.2855,-0.2906,-0.2669,-0.2651,-0.2942,-0.2942,-0.2943,0,-0.2533,-0.2587,-0.2661,-0.2759,-0.2783,-0.2829,-0.2908,-0.2962,-0.3029,-0.305,-0.307,-0.3068,-0.3089,-0.3045,-0.3041,-0.3033,-0.3,-0.2982,-0.2981,-0.2911,-0.2863,-0.2649,-0.2647,-0.2949,-0.2948,-0.2948,-0.2947,0,-0.248,-0.2588,-0.2643,-0.2679,-0.2796,-0.2832,-0.2885,-0.2965,-0.3009,-0.3078,-0.3105,-0.313,-0.3131,-0.3111,-0.307,-0.3056,-0.306,-0.303,-0.2957,-0.2953,-0.2732,-0.2706,-0.3025,-0.3025,-0.3025,-0.3025,-0.3025,0,-0.2474,-0.2513,-0.262,-0.2651,-0.2711,-0.2802,-0.2865,-0.2927,-0.3013,-0.3062,-0.3115,-0.314,-0.3146,-0.3146,-0.3103,-0.3046,-0.3079,-0.2978,-0.2956,-0.2751,-0.2729,-0.2965,-0.2958,-0.3025,-0.3025,-0.3025,-0.3025,0,-0.2405,-0.2482,-0.2544,-0.2657,-0.2688,-0.2722,-0.2834,-0.2882,-0.2975,-0.3041,-0.3062,-0.3146,-0.3151,-0.3151,-0.3127,-0.3075,-0.3033,-0.2998,-0.2764,-0.2715,-0.2918,-0.2915,-0.2929,-0.2927,-0.2926,-0.2924,-0.2923,0,-0.2376,-0.2402,-0.2511,-0.2539,-0.2586,-0.2654,-0.2707,-0.283,-0.2885,-0.3026,-0.3047,-0.3105,-0.3114,-0.3088,-0.3006,-0.2941,-0.2997,-0.2694,-0.2628,-0.2934,-0.2911,-0.291,-0.2909,-0.236,-0.2354,-0.235,-0.2346,0,-0.2301,-0.2338,-0.2384,-0.2442,-0.2494,-0.2556,-0.2637,-0.2683,-0.2833,-0.2891,-0.297,-0.2996,-0.3002,-0.2836,-0.2774,-0.2695,-0.2692,-0.2603,-0.2967,-0.2435,-0.2401,-0.2379,-0.2395,-0.2306,-0.231,-0.2313,-0.2315,-0.2317,-0.2216,-0.2223,-0.2277,-0.2318,-0.2379,-0.2421,-0.2416,-0.2521,-0.2575,-0.2618,-0.2769,-0.2719,-0.2722,-0.2501,-0.24,-0.2312,-0.2482,-0.2351,-0.2363,-0.2379,-0.2327,-0.2294,-0.2168,-0.2171,-0.2174,-0.2176,-0.2178,0,-0.2096,-0.2119,-0.2151,-0.2187,-0.2182,-0.2265,-0.2335,-0.2291,-0.229,-0.2365,-0.2385,-0.2171,-0.2089,-0.2097,-0.1908,-0.1896,-0.185,-0.1815,-0.1736,-0.1777,-0.1813,-0.173,-0.1413,-0.1411,-0.1409,-0.1407,0,0,-0.2032,-0.2005,-0.2021,-0.196,-0.1986,-0.1917,-0.1917,-0.1873,-0.1875,-0.1799,-0.1766,-0.1926,-0.2015,-0.1691,-0.1636,-0.1493,-0.161,-0.1423,-0.2032,-0.1976,-0.2009,-0.2117,-0.2036,0,0,0,0,0]},{"header":{"parameterUnit":"m.s-1","parameterCategory":2,"la1":30.2991,"la2":30.254,"lo1":-89.0895,"lo2":-89.0444,"dy":0.0017,"dx":0.0017,"nx":28,"ny":28,"refTime":"2023-09-19T03:00:00:Z","depth":"2","parameterNumber":3,"parameterNumberName":"V-component_of_CURRENTS"},"data":[0,0,0,0,0,0,0,0,0,0,0,0,0,0,0,0,0,0,0,0,0,0,0,0,0,0,0,0,0,0,0,0,0,0,0,0,0,0,0,0,0,0,0,0,0,0,0,0,0,0,0,0,0,0,0,0,0,0,-0.0159,-0.0158,0,-0.0065,-0.0064,-0.0063,-0.0001,-0.0,0.0,0.0001,0.0124,0.0127,0.0129,0,0,0,0,0,0,0,0,0,0,0,0,0,-0.024,-0.0239,-0.0159,-0.0158,-0.0157,-0.0065,-0.0064,-0.0063,-0.0001,-0.0,0.0,0.0001,0.0123,0.0126,0.013,0,0,0,0,0,0,0,0,0,0,0,0,0,-0.0182,-0.0239,-0.016,-0.0115,-0.011,-0.0066,-0.0064,-0.0062,-0.0001,-0.0,0.0001,0.0001,0.0122,0.0126,0.013,0.0143,0,0,0.0143,0.0145,0,0,0,0,0,0,0,0,-0.0185,-0.0179,-0.0122,-0.0118,-0.0112,-0.0044,-0.0047,0.0008,-0.0001,-0.0042,0.0001,0.0002,0.007,0.0079,0.0094,0.0149,0.0154,0.0144,0.0146,0.0148,0.0149,0,0,0,0,0,0,0,-0.019,-0.0182,-0.0122,-0.0121,-0.0115,-0.0084,-0.0075,-0.0036,0.0009,-0.0039,-0.0034,-0.0023,0.0073,0.009,0.0098,0.0156,0.0144,0.0147,0.015,0.0152,0.025,0.025,0,0,0,0,0,0,-0.0203,-0.0187,-0.0125,-0.012,-0.0147,-0.0083,-0.0073,-0.0067,0.0008,0.002,-0.0024,-0.0021,0.0082,0.0092,0.0102,0.0134,0.0148,0.0152,0.0155,0.025,0.025,0.025,0,0,0,0,0,0,-0.0206,-0.0199,-0.0129,-0.015,-0.0139,-0.0083,-0.0075,-0.0065,-0.0046,0.0019,0.0032,-0.0015,0.0083,0.0096,0.014,0.0139,0.0154,0.0158,0.025,0.025,0.025,0.019,0,0,0,0,0,0,-0.0208,-0.0201,-0.0204,-0.0152,-0.0138,-0.011,-0.0075,-0.0064,-0.004,-0.0035,0.0031,0.0043,0.0085,0.0133,0.0144,0.0145,0.0161,0.025,0.025,0.025,0.0192,0.0188,0.0185,0,0,0,0,0,-0.0212,-0.0222,-0.0205,-0.0198,-0.0144,-0.0111,-0.0101,-0.0058,-0.0041,-0.0038,0.0012,0.0042,0.0141,0.0137,0.0149,0.0152,0.025,0.025,0.025,0.0194,0.0189,0.0185,0,0,0,0,0,0,-0.0259,-0.0215,-0.0196,-0.0192,-0.0157,-0.01,-0.0095,-0.0064,-0.0023,-0.0018,0.0044,0.006,0.0096,0.0132,0.0125,0.018,0.02,0.0202,0.0152,0.0148,0.0145,0.013,0.0165,0,0,0,0,0,-0.0273,-0.0269,-0.0218,-0.0217,-0.0202,-0.015,-0.0132,-0.0103,-0.0058,-0.0039,0.001,0.0061,0.0105,0.0132,0.0173,0.0205,0.0247,0.0214,0.0211,0.0207,0.0204,0.0268,0.027,0.0251,0.0251,0.0251,0,0,-0.0291,-0.0266,-0.0264,-0.0227,-0.0197,-0.0184,-0.0138,-0.0117,-0.0101,-0.0032,-0.0001,0.0048,0.011,0.0146,0.0165,0.0177,0.0235,0.0207,0.0204,0.0203,0.0269,0.0271,0.0272,0.0251,0.0251,0.0251,0,0,-0.0332,-0.0305,-0.0317,-0.0291,-0.0252,-0.0216,-0.0213,-0.0158,-0.0129,-0.0093,-0.0038,0.0011,0.0073,0.0124,0.0157,0.0158,0.021,0.0168,0.0143,0.0204,0.0207,0.0209,0.026,0.0268,0.0169,0.0169,0.0169,0,-0.0359,-0.0363,-0.0316,-0.0318,-0.0302,-0.0235,-0.0241,-0.02,-0.0138,-0.0113,-0.0094,0.0015,0.0065,0.0124,0.0125,0.015,0.0189,0.0153,0.0199,0.0203,0.0206,0.0258,0.0267,0.0166,0.0167,0.0167,0.0167,0,-0.0405,-0.0406,-0.0411,-0.039,-0.0365,-0.036,-0.0297,-0.0268,-0.0224,-0.0176,-0.0113,-0.0036,0.003,0.0054,0.0091,0.0141,0.0161,0.0183,0.0207,0.0204,0.026,0.027,0.0162,0.0163,0.0164,0.0165,0,0,-0.047,-0.0452,-0.0452,-0.0458,-0.0404,-0.0392,-0.0359,-0.031,-0.0288,-0.0214,-0.0176,-0.0088,-0.0038,0.0002,0.0063,0.0121,0.0178,0.0155,0.016,0.02,0.0309,0.0352,0.0368,0.0207,0.0209,0.021,0.0336,0,-0.0523,-0.056,-0.052,-0.0539,-0.0551,-0.0475,-0.0452,-0.0393,-0.0329,-0.0273,-0.0171,-0.0116,-0.0058,-0.0028,0.0041,0.0145,0.0203,0.0141,0.0311,0.0316,0.035,0.0381,0.0324,0.0435,0.0346,0.0348,0.0349,0,-0.058,-0.0598,-0.0637,-0.0623,-0.0619,-0.0611,-0.0557,-0.0525,-0.042,-0.0369,-0.0278,-0.0194,-0.0087,-0.0047,0.0138,0.0095,0.019,0.0272,0.028,0.0349,0.038,0.0426,0.0457,0.0368,0.0366,0.0365,0.0364,0,-0.066,-0.0673,-0.0712,-0.0707,-0.0678,-0.0673,-0.0648,-0.0561,-0.0533,-0.0426,-0.0389,-0.0244,-0.0169,-0.0026,0.0157,0.0145,0.036,0.0366,0.0497,0.05,0.0501,0.0502,0.0486,0.0485,0.0485,0.0485,0.0484,0,-0.0731,-0.0758,-0.0758,-0.0777,-0.0817,-0.0758,-0.0763,-0.0711,-0.063,-0.0594,-0.045,-0.0383,-0.0161,-0.0003,0.0147,0.0368,0.036,0.0502,0.0543,0.0478,0.0476,0.0455,0.045,0.049,0.0488,0.0488,0.0487,0,-0.0808,-0.0806,-0.0854,-0.0855,-0.0859,-0.0886,-0.0856,-0.0852,-0.076,-0.0706,-0.0675,-0.0477,-0.026,-0.0028,0.0223,0.0359,0.0556,0.063,0.0539,0.0568,0.0652,0.0642,0.0783,0.0785,0.0788,0.079,0.0791,0,-0.0852,-0.0888,-0.0929,-0.0968,-0.0973,-0.0997,-0.1011,-0.0935,-0.0915,-0.0759,-0.0739,-0.0514,-0.0336,0.0063,0.0341,0.0633,0.0629,0.0736,0.0707,0.0661,0.0686,0.0672,0.066,0.068,0.0681,0.0682,0.0682,0,-0.0935,-0.0947,-0.0989,-0.1079,-0.1117,-0.1149,-0.1153,-0.1155,-0.1044,-0.0966,-0.0814,-0.0656,-0.025,0.0083,0.0472,0.0621,0.0688,0.0756,0.075,0.0614,0.0576,0.0596,0.0585,0.0686,0.0686,0.0686,0.0685,0.0685,-0.099,-0.1048,-0.1109,-0.1189,-0.1242,-0.1286,-0.1307,-0.127,-0.1222,-0.1069,-0.0894,-0.0627,-0.0275,0.0271,0.0544,0.0781,0.0776,0.0819,0.0813,0.0808,0.0773,0.0741,0.0876,0.0877,0.0877,0.0878,0.0878,0,-0.106,-0.1124,-0.1213,-0.13,-0.1373,-0.1368,-0.1388,-0.1361,-0.1302,-0.1107,-0.0913,-0.0527,-0.0129,0.0225,0.0615,0.0858,0.0817,0.0876,0.0778,0.0772,0.0768,0.0727,0.0821,0.0821,0.0822,0.0822,0,0,-0.1098,-0.1199,-0.125,-0.139,-0.1449,-0.1508,-0.1517,-0.1438,-0.13,-0.1104,-0.0892,-0.0572,-0.0125,0.0143,0.0451,0.0651,0.0638,0.0651,0.0669,0.0511,0.0503,0.0707,0.0636,0,0,0,0,0]}],[{"header":{"parameterUnit":"m.s-1","parameterCategory":2,"la1":30.2991,"la2":30.254,"lo1":-89.0895,"lo2":-89.0444,"dy":0.0017,"dx":0.0017,"nx":28,"ny":28,"refTime":"2023-09-19T03:00:00:Z","depth":"4","parameterNumber":2,"parameterNumberName":"U-component_of_CURRENTS"},"data":[0,0,0,0,0,0,0,0,0,0,0,0,0,0,0,0,0,0,0,0,0,0,0,0,0,0,0,0,0,0,0,0,0,0,0,0,0,0,0,0,0,0,0,0,0,0,0,0,0,0,0,0,0,0,0,0,0,0,-0.1752,-0.1753,0,-0.182,-0.1821,-0.1821,-0.1862,-0.1863,-0.1863,-0.1863,-0.1922,-0.1923,-0.1924,0,0,0,0,0,0,0,0,0,0,0,0,0,-0.1643,-0.1645,-0.1752,-0.1753,-0.1754,-0.182,-0.1821,-0.1821,-0.1862,-0.1863,-0.1863,-0.1864,-0.1922,-0.1923,-0.1925,0,0,0,0,0,0,0,0,0,0,0,0,0,-0.1697,-0.1645,-0.1752,-0.1784,-0.1788,-0.182,-0.1821,-0.1822,-0.1862,-0.1863,-0.1863,-0.1864,-0.1921,-0.1923,-0.1925,-0.1924,0,0,-0.193,-0.1931,0,0,0,0,0,0,0,0,-0.1694,-0.17,-0.1778,-0.1782,-0.1786,-0.1835,-0.1804,-0.1856,-0.1862,-0.1832,-0.1863,-0.1864,-0.1893,-0.1897,-0.1906,-0.1927,-0.193,-0.193,-0.1932,-0.1932,-0.1933,0,0,0,0,0,0,0,-0.169,-0.1698,-0.1777,-0.1779,-0.1784,-0.179,-0.1798,-0.1814,-0.1856,-0.1834,-0.1838,-0.1849,-0.1895,-0.1904,-0.1908,-0.193,-0.193,-0.1932,-0.1933,-0.1934,-0.204,-0.2042,0,0,0,0,0,0,-0.1686,-0.1694,-0.1775,-0.1779,-0.1743,-0.1792,-0.1801,-0.1817,-0.1857,-0.1864,-0.1848,-0.185,-0.1901,-0.1905,-0.191,-0.1998,-0.1932,-0.1934,-0.1935,-0.2039,-0.2041,-0.2043,0,0,0,0,0,0,-0.1684,-0.1693,-0.1772,-0.1739,-0.175,-0.1794,-0.1811,-0.1818,-0.1861,-0.1868,-0.1874,-0.1888,-0.1901,-0.1907,-0.1957,-0.1997,-0.1935,-0.1936,-0.2037,-0.2039,-0.2042,-0.2119,0,0,0,0,0,0,-0.168,-0.1692,-0.1717,-0.1739,-0.1752,-0.1818,-0.1811,-0.1819,-0.1866,-0.1871,-0.1904,-0.1908,-0.1902,-0.1955,-0.1959,-0.1999,-0.1938,-0.2034,-0.2038,-0.2041,-0.2114,-0.2124,-0.2132,0,0,0,0,0,-0.1676,-0.1705,-0.1717,-0.1728,-0.178,-0.182,-0.1828,-0.1857,-0.1868,-0.1897,-0.192,-0.1909,-0.1978,-0.1958,-0.1962,-0.2003,-0.2033,-0.2037,-0.2041,-0.211,-0.2122,-0.2132,0,0,0,0,0,0,-0.1673,-0.1713,-0.1727,-0.1768,-0.1804,-0.1828,-0.186,-0.1878,-0.1919,-0.1931,-0.1932,-0.1939,-0.1997,-0.199,-0.1967,-0.2043,-0.2003,-0.2008,-0.2054,-0.2065,-0.2074,-0.2075,-0.1939,0,0,0,0,0,-0.1682,-0.1716,-0.1751,-0.1787,-0.1809,-0.1841,-0.1866,-0.1889,-0.192,-0.194,-0.1964,-0.1987,-0.2011,-0.2031,-0.205,-0.2093,-0.2076,-0.2122,-0.2131,-0.2138,-0.2143,-0.215,-0.216,-0.2056,-0.2055,-0.2055,0,0,-0.1691,-0.1718,-0.1738,-0.179,-0.1819,-0.1861,-0.1859,-0.191,-0.1953,-0.1939,-0.2012,-0.2023,-0.203,-0.208,-0.2105,-0.2084,-0.2161,-0.2143,-0.215,-0.215,-0.2155,-0.2165,-0.2174,-0.2058,-0.2058,-0.2057,0,0,-0.1713,-0.1751,-0.1784,-0.1821,-0.1876,-0.1898,-0.1922,-0.197,-0.2004,-0.2064,-0.2066,-0.2104,-0.2146,-0.2158,-0.2166,-0.2236,-0.2209,-0.2247,-0.2295,-0.2303,-0.2311,-0.2318,-0.2315,-0.2321,-0.2251,-0.2251,-0.2251,0,-0.1723,-0.177,-0.1801,-0.1845,-0.1882,-0.192,-0.1967,-0.2007,-0.2068,-0.2098,-0.2101,-0.217,-0.218,-0.2229,-0.2256,-0.2257,-0.2251,-0.2253,-0.2314,-0.232,-0.2326,-0.2321,-0.2326,-0.2255,-0.2255,-0.2254,-0.2254,0,-0.1762,-0.1815,-0.1841,-0.1907,-0.1952,-0.2001,-0.2056,-0.2111,-0.2153,-0.2183,-0.2255,-0.2269,-0.2302,-0.2318,-0.2312,-0.2366,-0.2345,-0.2324,-0.2284,-0.2341,-0.2332,-0.2337,-0.2261,-0.226,-0.2258,-0.2257,0,0,-0.1735,-0.1846,-0.1857,-0.1903,-0.1992,-0.2027,-0.2111,-0.2182,-0.2235,-0.2293,-0.2353,-0.2399,-0.2404,-0.2413,-0.2413,-0.2427,-0.2468,-0.2402,-0.2401,-0.2394,-0.2483,-0.2326,-0.2316,-0.2459,-0.246,-0.2461,-0.246,0,-0.1755,-0.1841,-0.1897,-0.1987,-0.2035,-0.2105,-0.2176,-0.225,-0.2307,-0.2375,-0.2404,-0.2456,-0.2441,-0.2462,-0.2478,-0.2473,-0.2484,-0.247,-0.2431,-0.243,-0.228,-0.2317,-0.2465,-0.2464,-0.2464,-0.2465,-0.2466,0,-0.1763,-0.1824,-0.1915,-0.2029,-0.2058,-0.2121,-0.2232,-0.2301,-0.2399,-0.2444,-0.2498,-0.2519,-0.2565,-0.2535,-0.2553,-0.2547,-0.2525,-0.2512,-0.2511,-0.2338,-0.2281,-0.2393,-0.2473,-0.2473,-0.2472,-0.2472,-0.2471,0,-0.1706,-0.183,-0.1904,-0.1946,-0.2081,-0.214,-0.2212,-0.2319,-0.2378,-0.2485,-0.2526,-0.2582,-0.2608,-0.2603,-0.258,-0.2574,-0.2581,-0.2561,-0.2399,-0.2388,-0.2495,-0.2487,-0.2566,-0.2566,-0.2566,-0.2566,-0.2566,0,-0.1684,-0.1746,-0.1889,-0.1928,-0.2017,-0.2121,-0.2216,-0.2296,-0.2405,-0.2458,-0.2549,-0.2574,-0.2627,-0.2633,-0.2605,-0.2507,-0.2595,-0.2408,-0.2376,-0.2529,-0.2525,-0.2498,-0.249,-0.2566,-0.2566,-0.2566,-0.2566,0,-0.1602,-0.1704,-0.1792,-0.1943,-0.1994,-0.2053,-0.2201,-0.2255,-0.2377,-0.2448,-0.2481,-0.258,-0.2579,-0.2604,-0.2596,-0.2511,-0.2452,-0.2394,-0.2561,-0.2539,-0.2251,-0.2248,-0.2212,-0.2206,-0.2201,-0.2197,-0.2194,0,-0.1565,-0.1606,-0.1773,-0.1822,-0.1894,-0.2002,-0.2067,-0.2217,-0.2265,-0.2415,-0.2422,-0.2488,-0.2526,-0.239,-0.2434,-0.2371,-0.2337,-0.2301,-0.2272,-0.2241,-0.2215,-0.2219,-0.2222,-0.2187,-0.2185,-0.2184,-0.2183,0,-0.1481,-0.1555,-0.1623,-0.1721,-0.1804,-0.1885,-0.1987,-0.2009,-0.2165,-0.2302,-0.2296,-0.2291,-0.2291,-0.2274,-0.2244,-0.2196,-0.2323,-0.2251,-0.226,-0.2232,-0.221,-0.219,-0.2198,-0.2167,-0.2169,-0.217,-0.2171,0,-0.1407,-0.1428,-0.1522,-0.159,-0.1689,-0.1722,-0.1805,-0.1858,-0.1927,-0.2101,-0.2089,-0.2163,-0.2263,-0.2181,-0.2149,-0.2097,-0.2059,-0.199,-0.2012,-0.2031,-0.1969,-0.1914,-0.1749,0,0,0,0,0,-0.1321,-0.1326,-0.1379,-0.1445,-0.1534,-0.1583,-0.1726,-0.1812,-0.1971,-0.1914,-0.1997,-0.1987,-0.1952,-0.1991,-0.1893,-0.2053,-0.2061,-0.1932,-0.1992,-0.2076,-0.2095,-0.2038,0,0,0,0,0,0,-0.1264,-0.1306,-0.1323,-0.1297,-0.1308,-0.1383,-0.1463,-0.1578,-0.1564,-0.1734,-0.1722,-0.1851,-0.1841,-0.1959,-0.1841,-0.1852,-0.1848,-0.199,-0.1985,-0.2065,-0.2082,-0.2098,-0.2045,0,0,0,0,0]},{"header":{"parameterUnit":"m.s-1","parameterCategory":2,"la1":30.2991,"la2":30.254,"lo1":-89.0895,"lo2":-89.0444,"dy":0.0017,"dx":0.0017,"nx":28,"ny":28,"refTime":"2023-09-19T03:00:00:Z","depth":"4","parameterNumber":3,"parameterNumberName":"V-component_of_CURRENTS"},"data":[0,0,0,0,0,0,0,0,0,0,0,0,0,0,0,0,0,0,0,0,0,0,0,0,0,0,0,0,0,0,0,0,0,0,0,0,0,0,0,0,0,0,0,0,0,0,0,0,0,0,0,0,0,0,0,0,0,0,-0.0151,-0.015,0,-0.0087,-0.0086,-0.0085,-0.0042,-0.0042,-0.0041,-0.0041,0.0057,0.006,0.0062,0,0,0,0,0,0,0,0,0,0,0,0,0,-0.02,-0.02,-0.0151,-0.015,-0.0149,-0.0087,-0.0086,-0.0085,-0.0042,-0.0041,-0.0041,-0.0041,0.0057,0.0059,0.0062,0,0,0,0,0,0,0,0,0,0,0,0,0,-0.0162,-0.02,-0.0151,-0.012,-0.0117,-0.0087,-0.0086,-0.0085,-0.0042,-0.0041,-0.0041,-0.0041,0.0056,0.0059,0.0063,0.0075,0,0,0.0073,0.0075,0,0,0,0,0,0,0,0,-0.0164,-0.016,-0.0126,-0.0122,-0.0119,-0.0072,-0.0067,-0.003,-0.0042,-0.007,-0.0041,-0.004,0.0017,0.0024,0.0034,0.008,0.0084,0.0074,0.0076,0.0077,0.0078,0,0,0,0,0,0,0,-0.0167,-0.0162,-0.0125,-0.0125,-0.0121,-0.0097,-0.0092,-0.006,-0.0029,-0.0068,-0.0065,-0.0058,0.0019,0.0031,0.0037,0.0085,0.0073,0.0077,0.0079,0.008,0.0164,0.0164,0,0,0,0,0,0,-0.0177,-0.0165,-0.0128,-0.0124,-0.0141,-0.0097,-0.0091,-0.0087,-0.003,-0.0021,-0.0058,-0.0056,0.0025,0.0033,0.0041,0.0069,0.0077,0.008,0.0082,0.0164,0.0164,0.0164,0,0,0,0,0,0,-0.0179,-0.0175,-0.013,-0.0143,-0.0135,-0.0097,-0.0093,-0.0086,-0.0073,-0.0023,-0.0014,-0.0052,0.0025,0.0036,0.0071,0.0072,0.0082,0.0085,0.0163,0.0164,0.0164,0.0118,0,0,0,0,0,0,-0.018,-0.0176,-0.018,-0.0144,-0.0135,-0.0118,-0.0093,-0.0085,-0.0069,-0.0066,-0.0015,-0.0005,0.0026,0.0066,0.0075,0.0077,0.0088,0.0163,0.0164,0.0164,0.012,0.0117,0.0115,0,0,0,0,0,-0.0183,-0.0191,-0.0181,-0.0176,-0.0141,-0.0118,-0.0112,-0.0082,-0.007,-0.0068,-0.0029,-0.0007,0.0074,0.0069,0.0079,0.0083,0.0163,0.0163,0.0164,0.0121,0.0118,0.0115,0,0,0,0,0,0,-0.0214,-0.0186,-0.0174,-0.0174,-0.015,-0.0111,-0.0108,-0.0086,-0.0055,-0.0052,-0.0004,0.0009,0.0038,0.0067,0.0061,0.0108,0.0122,0.0124,0.0086,0.0083,0.008,0.0067,0.0091,0,0,0,0,0,-0.0224,-0.0224,-0.0191,-0.0192,-0.0182,-0.0146,-0.0134,-0.0114,-0.0081,-0.0067,-0.0029,0.0011,0.0047,0.0069,0.0102,0.0129,0.0162,0.0138,0.0136,0.0133,0.013,0.0185,0.0187,0.0165,0.0165,0.0165,0,0,-0.0238,-0.0222,-0.0222,-0.0199,-0.0179,-0.0171,-0.0138,-0.0124,-0.0114,-0.0061,-0.0037,0.0001,0.0051,0.0081,0.0097,0.0107,0.0157,0.0134,0.0131,0.013,0.0186,0.0188,0.019,0.0165,0.0165,0.0165,0,0,-0.0267,-0.0251,-0.0261,-0.0244,-0.0219,-0.0194,-0.0192,-0.0154,-0.0134,-0.0107,-0.0065,-0.0024,0.0026,0.0067,0.0093,0.0097,0.0138,0.0105,0.0087,0.014,0.0143,0.0145,0.0185,0.0191,0.0108,0.0108,0.0108,0,-0.0286,-0.0292,-0.0261,-0.0263,-0.0255,-0.0208,-0.0215,-0.0185,-0.014,-0.0122,-0.0107,-0.0021,0.002,0.007,0.0071,0.0092,0.0123,0.0093,0.0137,0.014,0.0143,0.0183,0.0191,0.0106,0.0106,0.0106,0.0106,0,-0.0318,-0.0323,-0.0328,-0.0316,-0.0301,-0.03,-0.0256,-0.0236,-0.0206,-0.0171,-0.0121,-0.0058,-0.0006,0.0016,0.0045,0.009,0.0104,0.0123,0.0142,0.0143,0.0185,0.0194,0.0103,0.0103,0.0104,0.0104,0,0,-0.0361,-0.0355,-0.0357,-0.0367,-0.0331,-0.0326,-0.0303,-0.027,-0.0257,-0.0198,-0.0172,-0.0098,-0.0058,-0.0025,0.0026,0.0076,0.0125,0.0104,0.0108,0.0138,0.0235,0.0213,0.0221,0.0152,0.0154,0.0155,0.0253,0,-0.0399,-0.043,-0.0406,-0.0427,-0.0439,-0.0389,-0.0376,-0.0335,-0.0289,-0.025,-0.0166,-0.0125,-0.0073,-0.005,0.0011,0.0097,0.0147,0.0096,0.0234,0.0238,0.0214,0.0229,0.0159,0.0259,0.0262,0.0263,0.0264,0,-0.0435,-0.0454,-0.049,-0.0493,-0.0493,-0.0494,-0.0465,-0.0445,-0.0368,-0.033,-0.0258,-0.0191,-0.01,-0.0066,0.0092,0.0057,0.0136,0.0205,0.0211,0.0212,0.0232,0.0262,0.028,0.0279,0.0278,0.0277,0.0276,0,-0.0488,-0.0509,-0.0546,-0.0547,-0.0539,-0.0545,-0.0535,-0.0475,-0.046,-0.038,-0.0356,-0.0233,-0.0174,-0.0051,0.0101,0.0095,0.027,0.0281,0.0339,0.0339,0.0349,0.0345,0.0384,0.0384,0.0383,0.0383,0.0383,0,-0.0531,-0.056,-0.0582,-0.0601,-0.0647,-0.0612,-0.063,-0.0597,-0.0543,-0.0521,-0.0407,-0.0357,-0.0167,-0.0039,0.009,0.0244,0.0268,0.0337,0.0365,0.0326,0.0319,0.0355,0.035,0.0387,0.0386,0.0385,0.0385,0,-0.0573,-0.0585,-0.0636,-0.066,-0.0675,-0.0707,-0.0711,-0.0713,-0.0653,-0.0619,-0.0597,-0.0441,-0.0272,-0.0081,0.013,0.0222,0.0373,0.0421,0.0362,0.0385,0.0406,0.0398,0.0485,0.0485,0.0485,0.0485,0.0486,0,-0.0595,-0.0628,-0.0694,-0.0738,-0.0756,-0.0796,-0.0821,-0.078,-0.0769,-0.0666,-0.0649,-0.0484,-0.0362,-0.0075,0.0117,0.0363,0.0394,0.0461,0.0435,0.04,0.0418,0.041,0.0402,0.0486,0.0486,0.0486,0.0486,0,-0.0638,-0.0667,-0.071,-0.0809,-0.086,-0.0906,-0.0929,-0.0928,-0.0859,-0.0812,-0.068,-0.0514,-0.0321,-0.0087,0.0113,0.0286,0.0411,0.0462,0.0463,0.0439,0.0402,0.0418,0.041,0.0486,0.0486,0.0486,0.0486,0,-0.0668,-0.0717,-0.0784,-0.0862,-0.0941,-0.0987,-0.0992,-0.0958,-0.0931,-0.08,-0.0759,-0.0532,-0.0388,-0.0127,0.0054,0.0227,0.0259,0.0293,0.0303,0.0305,0.0222,0.0146,0.0177,0,0,0,0,0,-0.0691,-0.0747,-0.0832,-0.0913,-0.0991,-0.1029,-0.1049,-0.103,-0.0965,-0.0884,-0.0812,-0.0626,-0.0333,-0.0201,-0.0032,0.0035,0.0272,0.0233,0.0312,0.0488,0.0487,0.0419,0,0,0,0,0,0,-0.0708,-0.0791,-0.0834,-0.0936,-0.0997,-0.1067,-0.1082,-0.1038,-0.0975,-0.0886,-0.0726,-0.0613,-0.0327,-0.0428,-0.0037,0.0018,0.0082,0.0384,0.0386,0.0488,0.0487,0.0487,0.0417,0,0,0,0,0]}]]